Regional Weather Roundup
Issued by NWS Jackson, KY

Home | Current Version | Previous Version | Text Only | Print | Product List | Glossary Off
Versions: 1 2 3 4 5 6 7 8 9 10 11 12 13 14 15 16 17 18 19 20 21 22 23 24 25 26 27 28 29 30 31 32 33 34 35 36 37 38 39 40 41 42 43 44 45 46 47 48 49 50

000
ASUS43 KJKL 231710
RWRJKL

EAST KENTUCKY HOURLY WEATHER ROUNDUP
NATIONAL WEATHER SERVICE JACKSON KY
100 PM EDT SAT SEP 23 2017

NOTE: "FAIR" INDICATES FEW OR NO CLOUDS BELOW 12,000 FEET WITH
NO SIGNIFICANT WEATHER AND/OR OBSTRUCTIONS TO VISIBILITY.

* THESE REPORTS ARE NOT UNDER NWS QUALITY CONTROL AND MAY NOT
  REPORT WEATHER SUCH AS PRECIPITATION AND FOG.

KYZ079-080-083-085-087-088-110-112-115-119-120-231800
...EASTERN KENTUCKY...

CITY           SKY/WX    TMP DP  RH WIND       PRES   REMARKS
JACKSON        SUNNY     81  64  56 VRB5      30.14F
LONDON         SUNNY     84  64  50 NW5       30.13F
SOMERSET*      SUNNY     82  63  51 NE5       30.12F
MONTICELLO*    SUNNY     83  66  56 N15       30.13F
WILLIAMSBURG*  SUNNY     82  66  57 NE3       30.12F
MIDDLESBORO*   SUNNY     83  67  58 CALM      30.12F
HARLAN APT*    PTSUNNY   84  63  48 CALM      30.13F
PIKE CO APT*     N/A     79  66  64 CALM      30.14F
BIG SANDY APT* SUNNY     82  66  59 N3        30.14S
MOREHEAD APT*  SUNNY     84  63  48 VRB6G12   30.15S
$$

KYZ035-036-041-042-044-050-067-078-099-231800
...CENTRAL KENTUCKY...

CITY           SKY/WX    TMP DP  RH WIND       PRES   REMARKS
MT STERLING*   SUNNY     82  63  51 E7        30.15S
FLEMING/MASON* SUNNY     82  63  51 NE6       30.15S
DANVILLE*      SUNNY     82  66  57 E7        30.13F
LEXINGTON      SUNNY     85  66  53 NE8       30.13F
FRANKFORT      SUNNY     86  64  47 E6        30.11F
LOUISVILLE     MOSUNNY   86  65  49 E8        30.10F
LEBANON*         N/A     84  66  54 CALM      30.12S
GLASGOW*       SUNNY     85  65  52 NE5       30.10F
BOWLING GREEN  SUNNY     86  70  58 NE6       30.09F HX  90
$$

KYZ091>093-OHZ055-061-077-WVZ005-015-034-035-042-231800
...SOUTHERN OHIO/WEST VIRGINIA...

CITY           SKY/WX    TMP DP  RH WIND       PRES   REMARKS
COVINGTON      MOSUNNY   85  66  53 E7        30.13F
COLUMBUS       SUNNY     88  59  37 E6        30.13F
DAYTON         SUNNY     86  63  45 VRB5      30.15F
WILMINGTON     SUNNY     86  66  51 NE7       30.13F
HUNTINGTON     SUNNY     83  63  50 NE5       30.12F
CHARLESTON     MOSUNNY   84  61  45 NE5       30.12F
PINEVILLE*     MOSUNNY   84  61  45 MISG      30.19F
BECKLEY        SUNNY     80  54  40 N9        30.18F
BLUEFIELD      SUNNY     77  55  46 NE6       30.20F
LOGAN CO APT*    N/A     82  63  51 CALM      30.14F
$$

VAZ002-007-008-TNZ017-027-036-066-071-231800
...SOUTHWEST VIRGINIA/EAST TENNESSEE...

CITY           SKY/WX    TMP DP  RH WIND       PRES   REMARKS
WISE*          SUNNY     81  57  44 E5        30.20F
JONESVILLE*      N/A     84  64  51 CALM      30.14F
ABINGDON*      MOSUNNY   85  61  45 E7        30.15F
BRISTOL        MOSUNNY   85  66  53 VRB3      30.12F
MORRISTOWN*    SUNNY     84  66  54 CALM      30.10F
SEVIERVILLE*   SUNNY     84  64  51 CALM      30.10F
LAFOLLETTE*    SUNNY     84  68  58 CALM      30.14F
OAK RIDGE      SUNNY     83  65  54 CALM      30.11F
CROSSVILLE     SUNNY     80  65  59 W5        30.15F
NASHVILLE      MOSUNNY   89  69  51 CALM      30.08F HX  93
$$

...KEY TO REMARKS...
VSB - VISIBILITY IN MILES
WCI - WIND CHILL INDEX
HX  - HEAT INDEX

$$



USA.gov is the U.S. government's official web portal to all federal, state and local government web resources and services.